sat.trackr.live / text

‹ back to catalog

STARLINK-35824

NORAD 66370 · 2025-254Y

PAYLOAD ACTIVE UNKNOWN

§ Identity

Operator
Country
US
Launch date
2025-11-06
Launch site
AFWTR
Launch vehicle
Mass (kg)
RCS (m²)

Purposes: comms

External: N2YO · Heavens-Above · Gunter

§ Orbital elements

Epoch: 2026-09-20T20:28:31.118880Z

Period
93.85 min
Inclination
53.1605°
Eccentricity
0.0000980
Mean motion
15.34388824 rev/d
Perigee alt
462.1 km
Apogee alt
463.4 km
Semi-major
6,840.9 km
B*
4.3901e-4
RAAN
41.8110°
Arg perigee
86.7661°
Mean anomaly
273.3453°
Rev number
4,891

§ Raw data

STARLINK-358241 66370U 25254Y   26263.85313795  .00014480  00000+0  43901-3 0  99962 66370  53.1605  41.8110 0000980  86.7661 273.3453 15.34388824 48915

JSON: /api/v1/satellites/66370 · /tle

For live sub-satellite position, see the globe view (requires WebGL).

§ Visibility from observer

Set your observer location to see the next 7 days of passes ≥ 10°. The values pass through the URL so the page stays shareable.

No JS? Fill the form by hand. The geolocation button needs JavaScript.